[[{"header":{"parameterUnit":"m.s-1","parameterCategory":1,"la1":30.2991,"la2":30.254,"lo1":-89.0895,"lo2":-89.0444,"dy":0.0017,"dx":0.0017,"nx":28,"ny":28,"refTime":"2025-05-31T03:00:00:Z","depth":0,"parameterNumber":2,"parameterNumberName":"U-component_of_WINDS"},"data":[0,0,0,0,0,0,0,0,0,0,0,0,0,0,0,0,0,0,0,0,0,0,0,0,0,0,0,0,0,0,0,0,0,0,0,0,0,0,0,0,0,0,0,0,0,0,0,0,0,0,0,0,0,0,0,0,0,0,-2.1108,-2.1109,0,-2.1184,-2.1184,-2.1185,-2.1216,-2.1216,-2.1216,-2.1216,-2.129,-2.1292,-2.1294,0,0,0,0,0,0,0,0,0,0,0,0,0,-2.0987,-2.0989,-2.1108,-2.1109,-2.111,-2.1183,-2.1184,-2.1186,-2.1216,-2.1216,-2.1216,-2.1216,-2.1289,-2.1292,-2.1294,0,0,0,0,0,0,0,0,0,0,0,0,0,-2.1049,-2.099,-2.1108,-2.1134,-2.1137,-2.1183,-2.1185,-2.1186,-2.1216,-2.1216,-2.1216,-2.1216,-2.1288,-2.1291,-2.1294,-2.1319,0,0,-2.1304,-2.1306,0,0,0,0,0,0,0,0,-2.1045,-2.1053,-2.1129,-2.1132,-2.1136,-2.119,-2.1169,-2.123,-2.1216,-2.1186,-2.1216,-2.1216,-2.1257,-2.1262,-2.1277,-2.1322,-2.1325,-2.1304,-2.1306,-2.1308,-2.1309,0,0,0,0,0,0,0,-2.1041,-2.105,-2.1138,-2.113,-2.1134,-2.1141,-2.115,-2.1181,-2.1222,-2.1189,-2.1191,-2.12,-2.1258,-2.1274,-2.1279,-2.1326,-2.1304,-2.1307,-2.1309,-2.131,-2.1397,-2.1397,0,0,0,0,0,0,-2.1033,-2.1046,-2.1135,-2.114,-2.1089,-2.1144,-2.1153,-2.1173,-2.1221,-2.1229,-2.12,-2.1201,-2.1269,-2.1275,-2.1282,-2.1314,-2.1308,-2.1311,-2.1312,-2.1397,-2.1397,-2.1398,0,0,0,0,0,0,-2.103,-2.104,-2.1132,-2.1094,-2.1106,-2.1146,-2.1168,-2.1175,-2.119,-2.123,-2.1237,-2.1209,-2.1269,-2.1277,-2.131,-2.1317,-2.1312,-2.1315,-2.1396,-2.1397,-2.1397,-2.1379,0,0,0,0,0,0,-2.1026,-2.1039,-2.1049,-2.1094,-2.1108,-2.116,-2.1168,-2.1176,-2.1196,-2.1198,-2.124,-2.1247,-2.1269,-2.1305,-2.1313,-2.1321,-2.1317,-2.1396,-2.1396,-2.1397,-2.1379,-2.1379,-2.1378,0,0,0,0,0,-2.1022,-2.104,-2.105,-2.106,-2.1122,-2.116,-2.1168,-2.1195,-2.1196,-2.1207,-2.1233,-2.1245,-2.1315,-2.1308,-2.1317,-2.1327,-2.1395,-2.1396,-2.1397,-2.1379,-2.1379,-2.1378,0,0,0,0,0,0,-2.0993,-2.1046,-2.1057,-2.109,-2.1121,-2.1165,-2.1179,-2.1193,-2.1222,-2.1223,-2.1254,-2.1263,-2.1293,-2.1313,-2.1304,-2.1354,-2.1356,-2.1359,-2.1339,-2.1339,-2.1339,-2.1333,-2.132,0,0,0,0,0,-2.0991,-2.1019,-2.1063,-2.1088,-2.1103,-2.1138,-2.1156,-2.1174,-2.1206,-2.1218,-2.1247,-2.1276,-2.1306,-2.1324,-2.1352,-2.1382,-2.1392,-2.1394,-2.1393,-2.1393,-2.1395,-2.1413,-2.1414,-2.1401,-2.14,-2.14,0,0,-2.0986,-2.1018,-2.1033,-2.1083,-2.1108,-2.1136,-2.1148,-2.1176,-2.1197,-2.1222,-2.1256,-2.1277,-2.1313,-2.1345,-2.136,-2.1362,-2.1401,-2.1394,-2.1393,-2.1395,-2.1414,-2.1415,-2.1416,-2.1401,-2.1401,-2.1401,0,0,-2.0991,-2.1018,-2.1042,-2.1068,-2.1108,-2.1132,-2.1137,-2.118,-2.1196,-2.1231,-2.1251,-2.1275,-2.1324,-2.1349,-2.1368,-2.1385,-2.1397,-2.1393,-2.1391,-2.1409,-2.141,-2.1411,-2.1417,-2.1419,-2.1395,-2.1395,-2.1395,0,-2.0979,-2.1022,-2.1052,-2.108,-2.1102,-2.1128,-2.1152,-2.1176,-2.1222,-2.1236,-2.1238,-2.1301,-2.1327,-2.1365,-2.137,-2.1384,-2.1392,-2.1388,-2.1408,-2.1409,-2.1411,-2.1417,-2.1419,-2.1394,-2.1394,-2.1394,-2.1394,0,-2.1006,-2.1036,-2.1051,-2.1097,-2.1119,-2.1145,-2.1179,-2.1199,-2.1216,-2.1239,-2.1274,-2.1306,-2.1342,-2.1353,-2.1369,-2.1394,-2.1394,-2.1402,-2.1405,-2.1411,-2.1417,-2.142,-2.1393,-2.1393,-2.1393,-2.1394,0,0,-2.0993,-2.1057,-2.1062,-2.1084,-2.113,-2.1153,-2.1181,-2.1218,-2.1234,-2.1266,-2.1289,-2.1331,-2.1339,-2.1361,-2.138,-2.1395,-2.1407,-2.1401,-2.1403,-2.1401,-2.1438,-2.1432,-2.1434,-2.1417,-2.1418,-2.1418,-2.1435,0,-2.1004,-2.1056,-2.1085,-2.1124,-2.1152,-2.1178,-2.1202,-2.1233,-2.1256,-2.1283,-2.1308,-2.1338,-2.1346,-2.1359,-2.1376,-2.1402,-2.1415,-2.1402,-2.1439,-2.144,-2.1428,-2.1437,-2.1431,-2.1445,-2.1438,-2.1438,-2.1439,0,-2.1024,-2.1057,-2.1099,-2.1144,-2.1157,-2.1178,-2.1215,-2.124,-2.1276,-2.1292,-2.1317,-2.1337,-2.1366,-2.1368,-2.141,-2.14,-2.1417,-2.1433,-2.1434,-2.1438,-2.1439,-2.1441,-2.145,-2.1452,-2.1443,-2.1442,-2.1442,0,-2.101,-2.1065,-2.1098,-2.1116,-2.1168,-2.1183,-2.1205,-2.1241,-2.1262,-2.1294,-2.1308,-2.1343,-2.1362,-2.1388,-2.1417,-2.1415,-2.1456,-2.146,-2.1469,-2.1469,-2.1476,-2.1475,-2.1487,-2.1487,-2.1487,-2.1487,-2.1487,0,-2.102,-2.1044,-2.1093,-2.1113,-2.1142,-2.1175,-2.1202,-2.1227,-2.1259,-2.1284,-2.1308,-2.1331,-2.1368,-2.1395,-2.1418,-2.1449,-2.1457,-2.1471,-2.1476,-2.1468,-2.1466,-2.1479,-2.1478,-2.1488,-2.1488,-2.1488,-2.1488,0,-2.1009,-2.1043,-2.108,-2.1128,-2.1141,-2.116,-2.12,-2.1221,-2.1246,-2.1277,-2.1287,-2.1326,-2.136,-2.1391,-2.1435,-2.1451,-2.1482,-2.149,-2.147,-2.1473,-2.1481,-2.148,-2.1502,-2.1507,-2.1504,-2.1504,-2.1504,0,-2.1012,-2.1033,-2.1083,-2.1102,-2.1125,-2.1155,-2.1177,-2.1211,-2.1233,-2.1277,-2.1292,-2.1328,-2.1358,-2.141,-2.1442,-2.1477,-2.1485,-2.1491,-2.149,-2.1482,-2.1485,-2.1483,-2.1486,-2.1489,-2.1489,-2.1489,-2.1489,0,-2.1015,-2.1031,-2.1063,-2.1101,-2.1127,-2.1158,-2.1189,-2.1203,-2.1243,-2.1267,-2.1302,-2.1326,-2.1373,-2.1408,-2.1446,-2.1469,-2.1486,-2.1489,-2.1494,-2.1485,-2.1473,-2.148,-2.1469,-2.1488,-2.1488,-2.1488,-2.1489,-2.1489,-2.1012,-2.1031,-2.107,-2.1105,-2.1133,-2.1162,-2.1184,-2.1213,-2.1244,-2.1285,-2.1303,-2.1339,-2.1376,-2.1429,-2.1452,-2.1481,-2.1484,-2.149,-2.1491,-2.1492,-2.1491,-2.1469,-2.1488,-2.1488,-2.1488,-2.1488,-2.1488,0,-2.1016,-2.1043,-2.1074,-2.1119,-2.1146,-2.1162,-2.1198,-2.1219,-2.1251,-2.1284,-2.1314,-2.1356,-2.1391,-2.1426,-2.1463,-2.1479,-2.1488,-2.1488,-2.1486,-2.1491,-2.1485,-2.1478,-2.148,-2.148,-2.148,-2.148,-2.148,-2.148,-2.1021,-2.1055,-2.1076,-2.1124,-2.1151,-2.1187,-2.1207,-2.1234,-2.1261,-2.1307,-2.1336,-2.136,-2.1394,-2.1434,-2.1467,-2.1477,-2.1489,-2.1486,-2.1498,-2.1491,-2.1492,-2.1492,-2.1485,-2.1489,-2.1489,-2.1502,-2.1502,-2.1502]},{"header":{"parameterUnit":"m.s-1","parameterCategory":1,"la1":30.2991,"la2":30.254,"lo1":-89.0895,"lo2":-89.0444,"dy":0.0017,"dx":0.0017,"nx":28,"ny":28,"refTime":"2025-05-31T03:00:00:Z","depth":0,"parameterNumber":3,"parameterNumberName":"V-component_of_WINDS"},"data":[0,0,0,0,0,0,0,0,0,0,0,0,0,0,0,0,0,0,0,0,0,0,0,0,0,0,0,0,0,0,0,0,0,0,0,0,0,0,0,0,0,0,0,0,0,0,0,0,0,0,0,0,0,0,0,0,0,0,-0.0542,-0.0542,0,-0.0572,-0.0573,-0.0573,-0.0567,-0.0566,-0.0565,-0.0565,-0.0597,-0.0598,-0.0599,0,0,0,0,0,0,0,0,0,0,0,0,0,-0.0478,-0.048,-0.0542,-0.0542,-0.0543,-0.0572,-0.0573,-0.0573,-0.0567,-0.0566,-0.0565,-0.0565,-0.0596,-0.0598,-0.0599,0,0,0,0,0,0,0,0,0,0,0,0,0,-0.0507,-0.048,-0.0542,-0.0543,-0.0544,-0.0572,-0.0573,-0.0573,-0.0567,-0.0566,-0.0565,-0.0564,-0.0596,-0.0598,-0.06,-0.0629,0,0,-0.0606,-0.0607,0,0,0,0,0,0,0,0,-0.0506,-0.051,-0.0543,-0.0543,-0.0544,-0.0565,-0.0562,-0.0592,-0.0567,-0.0558,-0.0565,-0.0564,-0.0587,-0.0589,-0.0597,-0.0631,-0.0632,-0.0606,-0.0607,-0.0608,-0.0609,0,0,0,0,0,0,0,-0.0504,-0.0508,-0.0554,-0.0543,-0.0544,-0.0542,-0.0545,-0.0568,-0.0577,-0.0559,-0.0558,-0.0562,-0.0587,-0.0595,-0.0598,-0.0633,-0.0606,-0.0608,-0.0609,-0.061,-0.0692,-0.0693,0,0,0,0,0,0,-0.0501,-0.0507,-0.0553,-0.0555,-0.0522,-0.0544,-0.0547,-0.0559,-0.0577,-0.0578,-0.0563,-0.0562,-0.0592,-0.0595,-0.0599,-0.0635,-0.0608,-0.061,-0.0611,-0.0691,-0.0692,-0.0693,0,0,0,0,0,0,-0.05,-0.0505,-0.0552,-0.0531,-0.0536,-0.0546,-0.0559,-0.056,-0.0568,-0.0579,-0.0581,-0.0569,-0.0591,-0.0596,-0.0622,-0.0636,-0.0611,-0.0613,-0.069,-0.0691,-0.0693,-0.0707,0,0,0,0,0,0,-0.0498,-0.0505,-0.0516,-0.0531,-0.0538,-0.0574,-0.056,-0.0561,-0.0572,-0.057,-0.0586,-0.0588,-0.0591,-0.0619,-0.0624,-0.0638,-0.0615,-0.0689,-0.069,-0.0692,-0.0705,-0.0709,-0.0712,0,0,0,0,0,-0.0496,-0.052,-0.0517,-0.0523,-0.0552,-0.0575,-0.0579,-0.0582,-0.0573,-0.0584,-0.0591,-0.0588,-0.0633,-0.0621,-0.0627,-0.0642,-0.0688,-0.069,-0.0692,-0.0704,-0.0708,-0.0712,0,0,0,0,0,0,-0.0507,-0.0521,-0.0519,-0.0548,-0.056,-0.0574,-0.0589,-0.0586,-0.0602,-0.06,-0.0603,-0.0606,-0.0633,-0.064,-0.0626,-0.0672,-0.0659,-0.0662,-0.0666,-0.067,-0.0674,-0.0672,-0.0616,0,0,0,0,0,-0.0512,-0.053,-0.0542,-0.0566,-0.0573,-0.058,-0.059,-0.0591,-0.0604,-0.0609,-0.0618,-0.0631,-0.0648,-0.0659,-0.0676,-0.0706,-0.0709,-0.0719,-0.0722,-0.0725,-0.0728,-0.0744,-0.0749,-0.07,-0.07,-0.07,0,0,-0.0525,-0.0535,-0.0546,-0.0569,-0.0578,-0.0596,-0.0584,-0.0604,-0.0617,-0.0612,-0.0637,-0.0644,-0.0658,-0.0686,-0.0699,-0.0693,-0.0742,-0.0728,-0.0729,-0.0731,-0.0747,-0.0752,-0.0756,-0.0701,-0.0701,-0.0701,0,0,-0.0557,-0.0566,-0.0587,-0.0597,-0.0612,-0.0616,-0.0621,-0.0635,-0.0639,-0.0664,-0.066,-0.0676,-0.0706,-0.0716,-0.0725,-0.076,-0.0757,-0.0765,-0.0782,-0.0798,-0.0802,-0.0805,-0.0818,-0.0822,-0.0768,-0.0768,-0.0768,0,-0.057,-0.0597,-0.0599,-0.0619,-0.0629,-0.0624,-0.0646,-0.0655,-0.0675,-0.0682,-0.0675,-0.0711,-0.0721,-0.0751,-0.0759,-0.0767,-0.0773,-0.0764,-0.0801,-0.0804,-0.0808,-0.082,-0.0825,-0.0769,-0.0769,-0.0769,-0.0768,0,-0.0613,-0.0632,-0.0648,-0.0666,-0.0678,-0.0698,-0.0703,-0.0715,-0.0714,-0.0719,-0.0744,-0.0755,-0.0774,-0.0781,-0.0781,-0.0811,-0.0807,-0.08,-0.0788,-0.0813,-0.0825,-0.0829,-0.077,-0.077,-0.077,-0.0769,0,0,-0.0654,-0.0673,-0.0678,-0.0687,-0.0702,-0.0716,-0.0736,-0.0754,-0.0764,-0.0777,-0.0794,-0.0819,-0.0813,-0.0823,-0.0824,-0.0838,-0.0864,-0.0829,-0.083,-0.0836,-0.0899,-0.0904,-0.091,-0.0862,-0.0863,-0.0863,-0.0898,0,-0.0688,-0.0724,-0.0725,-0.0758,-0.0775,-0.0771,-0.0788,-0.0799,-0.0804,-0.0819,-0.0824,-0.0842,-0.0832,-0.0838,-0.0852,-0.0858,-0.0877,-0.0856,-0.0878,-0.0879,-0.0876,-0.0916,-0.0922,-0.0954,-0.0902,-0.0903,-0.0903,0,-0.0732,-0.0747,-0.0781,-0.0793,-0.0801,-0.0816,-0.0833,-0.0847,-0.0859,-0.0862,-0.0873,-0.0871,-0.0892,-0.0878,-0.0906,-0.0891,-0.09,-0.0905,-0.0906,-0.0909,-0.0894,-0.0921,-0.0964,-0.0969,-0.091,-0.091,-0.0909,0,-0.076,-0.0787,-0.0811,-0.0818,-0.0833,-0.0844,-0.0851,-0.0862,-0.0873,-0.0887,-0.0893,-0.0909,-0.0918,-0.0931,-0.0934,-0.0923,-0.0962,-0.0948,-0.0965,-0.0965,-0.0975,-0.0974,-0.1021,-0.0979,-0.0979,-0.0979,-0.0979,0,-0.0798,-0.0819,-0.0824,-0.0839,-0.0862,-0.0863,-0.0887,-0.0892,-0.0902,-0.0918,-0.0915,-0.093,-0.0932,-0.0948,-0.095,-0.0973,-0.0977,-0.098,-0.098,-0.0981,-0.098,-0.0988,-0.0986,-0.098,-0.098,-0.0979,-0.0979,0,-0.0833,-0.0837,-0.0863,-0.0874,-0.0877,-0.0894,-0.0904,-0.0918,-0.0922,-0.0942,-0.0947,-0.0953,-0.0971,-0.0975,-0.0996,-0.0998,-0.1026,-0.1023,-0.1022,-0.1022,-0.1039,-0.1037,-0.1092,-0.11,-0.1052,-0.1053,-0.1053,0,-0.0857,-0.0874,-0.0887,-0.0897,-0.0904,-0.0921,-0.0931,-0.0932,-0.0943,-0.0958,-0.0971,-0.0988,-0.1002,-0.1031,-0.1037,-0.1053,-0.1052,-0.107,-0.1055,-0.1054,-0.1053,-0.1053,-0.1054,-0.1074,-0.1074,-0.1075,-0.1075,0,-0.0901,-0.0901,-0.0917,-0.0932,-0.0945,-0.0957,-0.0969,-0.0978,-0.098,-0.0993,-0.1011,-0.1022,-0.1043,-0.1061,-0.1077,-0.1083,-0.108,-0.1079,-0.1084,-0.1086,-0.1084,-0.1086,-0.1031,-0.1079,-0.1078,-0.1078,-0.1078,-0.1078,-0.0932,-0.0946,-0.0957,-0.0974,-0.0983,-0.0994,-0.1008,-0.1013,-0.1028,-0.1046,-0.1045,-0.1065,-0.1076,-0.1097,-0.1105,-0.112,-0.1115,-0.1122,-0.1124,-0.1126,-0.1127,-0.1081,-0.1123,-0.1123,-0.1123,-0.1123,-0.1123,0,-0.0975,-0.0982,-0.0997,-0.1014,-0.1027,-0.1022,-0.1034,-0.1046,-0.1063,-0.1074,-0.1088,-0.1108,-0.1125,-0.1132,-0.1149,-0.116,-0.1158,-0.1164,-0.1164,-0.1165,-0.1131,-0.1126,-0.1165,-0.1165,-0.1165,-0.1165,-0.1165,-0.1165,-0.1,-0.1023,-0.1025,-0.1053,-0.106,-0.108,-0.1087,-0.1097,-0.1106,-0.1129,-0.1143,-0.1147,-0.1156,-0.1173,-0.1188,-0.119,-0.1196,-0.1203,-0.1204,-0.1172,-0.1168,-0.1164,-0.1159,-0.1204,-0.1204,-0.1236,-0.1237,-0.1237]}]]